Location: Aula-Vintri
(58.3875°N, 22.4322°E)
Time: 07:02:09
(UTC+00:00)

GEOS 3 Rocket - Pass Details

Date: 13 October 2019
Orbit: 788 x 831 km, 115.0° (Epoch: 11 November)

Event Time Altitude Azimuth Distance (km) Brightness Sun altitude
Exits shadow 19:24:27 65° 286° (WNW) 876 3.8 -29.8°
Drops below altitude 10° 19:28:53 10° 306° (NW) 2,383 7.0 -30.2°
Sets 19:31:11 0° 308° (NW) 3,322 8.0 -30.4°
